Time,TemperatureF,DewpointF,PressureIn,WindDirection,WindDirectionDegrees,WindSpeedMPH,WindSpeedGustMPH,Humidity,HourlyPrecipIn,Conditions,Clouds,dailyrainin,SoftwareType,DateUTC
2013-03-28 00:00:00,34.5,12.7,17.72,West,271,0.0,3.1,40,0.00,,---,0.04,VWS V13.01,2013-03-28 04:00:00,
2013-03-28 00:05:00,34.5,12.7,17.72,West,270,0.0,4.0,40,0.00,,---,0.00,VWS V13.01,2013-03-28 04:05:00,
2013-03-28 00:10:00,34.5,12.7,17.72,West,268,3.6,3.6,40,0.00,,---,0.00,VWS V13.01,2013-03-28 04:10:00,
2013-03-28 00:15:00,34.5,12.7,17.72,West,273,2.7,2.7,40,0.00,,---,0.00,VWS V13.01,2013-03-28 04:15:00,
2013-03-28 00:20:00,34.5,12.7,17.72,West,281,0.0,0.0,40,0.00,,---,0.00,VWS V13.01,2013-03-28 04:20:00,
2013-03-28 00:25:00,34.5,12.7,17.72,West,272,0.0,0.0,40,0.00,,---,0.00,VWS V13.01,2013-03-28 04:25:00,
2013-03-28 00:30:00,34.5,12.7,17.72,NNE,31,0.0,0.0,40,0.00,,---,0.00,VWS V13.01,2013-03-28 04:30:00,
2013-03-28 00:35:00,34.5,12.7,17.72,West,270,0.0,0.0,40,0.00,,---,0.00,VWS V13.01,2013-03-28 04:35:00,
2013-03-28 00:40:00,34.5,12.7,17.72,North,4,0.0,0.0,40,0.00,,---,0.00,VWS V13.01,2013-03-28 04:40:00,
2013-03-28 00:45:00,34.5,12.7,17.72,WNW,291,3.1,4.0,40,0.00,,---,0.00,VWS V13.01,2013-03-28 04:45:00,
2013-03-28 00:50:00,34.5,12.7,17.72,NNE,17,0.0,2.2,40,0.00,,---,0.00,VWS V13.01,2013-03-28 04:50:00,
2013-03-28 00:55:00,34.5,12.7,17.72,SW,231,0.0,0.0,40,0.00,,---,0.00,VWS V13.01,2013-03-28 04:55:00,
2013-03-28 01:00:00,34.5,12.7,17.72,WSW,256,0.0,3.1,40,0.00,,---,0.00,VWS V13.01,2013-03-28 05:00:00,
2013-03-28 01:05:00,34.5,12.7,17.72,NNW,332,0.0,0.0,40,0.00,,---,0.00,VWS V13.01,2013-03-28 05:05:00,
2013-03-28 01:10:00,34.5,12.7,17.72,NNW,339,0.0,2.2,40,0.00,,---,0.00,VWS V13.01,2013-03-28 05:10:00,
2013-03-28 01:15:00,34.3,12.5,17.72,West,260,0.0,0.0,40,0.00,,---,0.00,VWS V13.01,2013-03-28 05:15:00,
2013-03-28 01:20:00,34.3,12.5,17.72,North,353,0.0,0.0,40,0.00,,---,0.00,VWS V13.01,2013-03-28 05:20:00,
2013-03-28 01:25:00,34.3,12.5,17.72,West,269,0.0,2.7,40,0.00,,---,0.00,VWS V13.01,2013-03-28 05:25:00,
2013-03-28 01:30:00,34.3,12.5,17.72,ENE,59,0.0,0.0,40,0.00,,---,0.00,VWS V13.01,2013-03-28 05:30:00,
2013-03-28 01:35:00,34.3,12.5,17.72,WSW,244,0.0,0.0,40,0.00,,---,0.00,VWS V13.01,2013-03-28 05:35:00,
2013-03-28 01:40:00,34.3,12.5,17.72,North,8,0.0,0.0,40,0.00,,---,0.00,VWS V13.01,2013-03-28 05:40:00,
2013-03-28 01:45:00,34.3,12.5,17.72,West,269,0.0,0.0,40,0.00,,---,0.00,VWS V13.01,2013-03-28 05:45:00,
2013-03-28 01:50:00,34.3,12.5,17.72,NNW,348,0.0,0.0,40,0.00,,---,0.00,VWS V13.01,2013-03-28 05:50:00,
2013-03-28 01:55:00,34.3,12.5,17.72,WNW,296,0.0,4.0,40,0.00,,---,0.00,VWS V13.01,2013-03-28 05:55:00,
2013-03-28 02:00:00,34.3,12.5,17.72,NNE,16,0.0,0.0,40,0.00,,---,0.00,VWS V13.01,2013-03-28 06:00:00,
2013-03-28 02:05:00,34.3,12.5,17.72,NNE,16,0.0,0.0,40,0.00,,---,0.00,VWS V13.01,2013-03-28 06:05:00,
2013-03-28 02:10:00,34.3,12.5,17.72,NNE,33,3.1,3.1,40,0.00,,---,0.00,VWS V13.01,2013-03-28 06:10:00,
2013-03-28 02:15:00,34.3,12.5,17.72,WSW,253,0.0,0.0,40,0.00,,---,0.00,VWS V13.01,2013-03-28 06:15:00,
2013-03-28 02:20:00,34.3,12.5,17.72,South,189,0.0,0.0,40,0.00,,---,0.00,VWS V13.01,2013-03-28 06:20:00,
2013-03-28 02:25:00,34.3,12.5,17.72,WNW,291,0.0,0.0,40,0.00,,---,0.00,VWS V13.01,2013-03-28 06:25:00,
2013-03-28 02:30:00,34.3,12.5,17.72,NNE,24,0.0,0.0,40,0.00,,---,0.00,VWS V13.01,2013-03-28 06:30:00,
2013-03-28 02:35:00,34.3,12.5,17.72,NE,39,2.2,2.2,40,0.00,,---,0.00,VWS V13.01,2013-03-28 06:35:00,
2013-03-28 02:40:00,34.3,12.5,17.72,NE,36,0.0,0.0,40,0.00,,---,0.00,VWS V13.01,2013-03-28 06:40:00,
2013-03-28 02:45:00,34.2,12.4,17.72,West,277,0.0,0.0,40,0.00,,---,0.00,VWS V13.01,2013-03-28 06:45:00,
2013-03-28 02:50:00,34.2,12.4,17.72,WSW,255,0.0,2.7,40,0.00,,---,0.00,VWS V13.01,2013-03-28 06:50:00,
2013-03-28 02:55:00,34.2,12.4,17.72,NNE,24,0.0,0.0,40,0.00,,---,0.00,VWS V13.01,2013-03-28 06:55:00,
2013-03-28 03:00:00,34.2,12.4,17.72,NW,315,0.0,0.0,40,0.00,,---,0.00,VWS V13.01,2013-03-28 07:00:00,
2013-03-28 03:05:00,34.2,12.4,17.72,WSW,256,0.0,0.0,40,0.00,,---,0.00,VWS V13.01,2013-03-28 07:05:00,
2013-03-28 03:10:00,34.2,12.4,17.72,WSW,252,0.0,0.0,40,0.00,,---,0.00,VWS V13.01,2013-03-28 07:10:00,
2013-03-28 03:15:00,34.2,12.4,17.72,SSW,200,0.0,3.1,40,0.00,,---,0.00,VWS V13.01,2013-03-28 07:15:00,
2013-03-28 03:20:00,34.2,12.4,17.72,NNE,28,0.0,0.0,40,0.00,,---,0.00,VWS V13.01,2013-03-28 07:20:00,
2013-03-28 03:25:00,34.2,12.4,17.72,NNE,28,0.0,0.0,40,0.00,,---,0.00,VWS V13.01,2013-03-28 07:25:00,
2013-03-28 03:30:00,34.2,12.4,17.72,North,6,0.0,0.0,40,0.00,,---,0.00,VWS V13.01,2013-03-28 07:30:00,
2013-03-28 03:35:00,34.2,12.9,17.72,NE,49,0.0,0.0,41,0.00,,---,0.00,VWS V13.01,2013-03-28 07:35:00,
2013-03-28 03:40:00,34.2,12.9,17.72,NNE,18,0.0,0.0,41,0.00,,---,0.00,VWS V13.01,2013-03-28 07:40:00,
2013-03-28 03:45:00,34.0,12.8,17.72,NNE,22,0.0,0.0,41,0.00,,---,0.00,VWS V13.01,2013-03-28 07:45:00,
2013-03-28 03:50:00,34.0,12.8,17.72,NNW,340,0.0,0.0,41,0.00,,---,0.00,VWS V13.01,2013-03-28 07:50:00,
2013-03-28 03:55:00,34.2,12.4,17.72,WSW,258,0.0,0.0,40,0.00,,---,0.00,VWS V13.01,2013-03-28 07:55:00,
2013-03-28 04:00:00,34.2,12.9,17.72,North,8,0.0,0.0,41,0.00,,---,0.00,VWS V13.01,2013-03-28 08:00:00,
2013-03-28 04:05:00,34.2,12.9,17.72,NW,305,0.0,0.0,41,0.00,,---,0.00,VWS V13.01,2013-03-28 08:05:00,
2013-03-28 04:10:00,34.2,12.4,17.72,WNW,295,0.0,0.0,40,0.00,,---,0.00,VWS V13.01,2013-03-28 08:10:00,
2013-03-28 04:15:00,34.2,12.9,17.72,WNW,290,0.0,0.0,41,0.00,,---,0.00,VWS V13.01,2013-03-28 08:15:00,
2013-03-28 04:20:00,34.2,12.9,17.72,North,5,0.0,0.0,41,0.00,,---,0.00,VWS V13.01,2013-03-28 08:20:00,
2013-03-28 04:25:00,34.2,12.9,17.72,NW,305,0.0,0.0,41,0.00,,---,0.00,VWS V13.01,2013-03-28 08:25:00,
2013-03-28 04:30:00,34.2,12.9,17.72,NE,41,0.0,0.0,41,0.00,,---,0.00,VWS V13.01,2013-03-28 08:30:00,
2013-03-28 04:35:00,34.2,12.9,17.72,West,270,0.0,0.0,41,0.00,,---,0.00,VWS V13.01,2013-03-28 08:35:00,
2013-03-28 04:40:00,34.2,12.9,17.72,NNW,328,0.0,0.0,41,0.00,,---,0.00,VWS V13.01,2013-03-28 08:40:00,
2013-03-28 04:45:00,34.2,12.9,17.72,NNE,15,0.0,0.0,41,0.00,,---,0.00,VWS V13.01,2013-03-28 08:45:00,
2013-03-28 04:50:00,34.2,12.9,17.72,North,8,0.0,0.0,41,0.00,,---,0.00,VWS V13.01,2013-03-28 08:50:00,
2013-03-28 04:55:00,34.2,12.9,17.72,ENE,75,0.0,0.0,41,0.00,,---,0.00,VWS V13.01,2013-03-28 08:55:00,
2013-03-28 05:00:00,34.2,12.9,17.72,North,0,0.0,0.0,41,0.00,,---,0.00,VWS V13.01,2013-03-28 09:00:00,
2013-03-28 05:05:00,34.2,12.9,17.72,SW,227,0.0,0.0,41,0.00,,---,0.00,VWS V13.01,2013-03-28 09:05:00,
2013-03-28 05:10:00,34.2,12.9,17.72,WSW,244,0.0,0.0,41,0.00,,---,0.00,VWS V13.01,2013-03-28 09:10:00,
2013-03-28 05:15:00,34.2,12.9,17.72,North,357,0.0,0.0,41,0.00,,---,0.00,VWS V13.01,2013-03-28 09:15:00,
2013-03-28 05:20:00,34.3,13.1,17.72,NE,34,0.0,0.0,41,0.00,,---,0.00,VWS V13.01,2013-03-28 09:20:00,
2013-03-28 05:25:00,34.3,13.1,17.72,West,277,0.0,0.0,41,0.00,,---,0.00,VWS V13.01,2013-03-28 09:25:00,
2013-03-28 05:30:00,34.3,13.1,17.72,WNW,291,0.0,0.0,41,0.00,,---,0.00,VWS V13.01,2013-03-28 09:30:00,
2013-03-28 05:35:00,34.3,13.1,17.72,SW,224,0.0,0.0,41,0.00,,---,0.00,VWS V13.01,2013-03-28 09:35:00,
2013-03-28 05:40:00,34.3,13.1,17.72,NW,321,0.0,0.0,41,0.00,,---,0.00,VWS V13.01,2013-03-28 09:40:00,
2013-03-28 05:44:00,34.3,13.1,17.72,West,280,0.0,0.0,41,0.00,,---,0.00,VWS V13.01,2013-03-28 09:44:00,
2013-03-28 05:49:00,34.3,13.1,17.72,WSW,255,0.0,0.0,41,0.00,,---,0.00,VWS V13.01,2013-03-28 09:49:00,
2013-03-28 05:54:00,34.3,13.1,17.72,South,178,0.0,0.0,41,0.00,,---,0.00,VWS V13.01,2013-03-28 09:54:00,
2013-03-28 06:00:00,34.3,13.1,17.72,West,261,0.0,0.0,41,0.00,,---,0.00,VWS V13.01,2013-03-28 10:00:00,
2013-03-28 06:04:00,34.3,13.1,17.72,West,280,0.0,0.0,41,0.00,,---,0.00,VWS V13.01,2013-03-28 10:04:00,
2013-03-28 06:09:00,34.3,13.1,17.72,West,264,0.0,0.0,41,0.00,,---,0.00,VWS V13.01,2013-03-28 10:09:00,
2013-03-28 06:14:00,34.3,13.1,17.72,SW,222,0.0,0.0,41,0.00,,---,0.00,VWS V13.01,2013-03-28 10:14:00,
2013-03-28 06:19:00,34.3,13.1,17.72,West,266,0.0,0.0,41,0.00,,---,0.00,VWS V13.01,2013-03-28 10:19:00,
2013-03-28 06:24:00,34.3,13.1,17.72,WSW,257,0.0,0.0,41,0.00,,---,0.00,VWS V13.01,2013-03-28 10:24:00,
2013-03-28 06:29:00,34.3,13.1,17.72,WSW,248,0.0,0.0,41,0.00,,---,0.00,VWS V13.01,2013-03-28 10:29:00,
2013-03-28 06:34:00,34.3,13.1,17.72,WNW,291,0.0,2.2,41,0.00,,---,0.00,VWS V13.01,2013-03-28 10:34:00,
2013-03-28 06:39:00,34.5,13.3,17.72,NW,307,0.0,0.0,41,0.00,,---,0.00,VWS V13.01,2013-03-28 10:39:00,
2013-03-28 06:44:00,34.5,13.3,17.72,WSW,250,0.0,0.0,41,0.00,,---,0.00,VWS V13.01,2013-03-28 10:44:00,
2013-03-28 06:50:00,34.5,13.3,17.72,NNW,345,0.0,0.0,41,0.00,,---,0.00,VWS V13.01,2013-03-28 10:50:00,
2013-03-28 06:55:00,34.5,13.3,17.72,West,277,0.0,0.0,41,0.00,,---,0.00,VWS V13.01,2013-03-28 10:55:00,
2013-03-28 06:59:00,34.5,13.3,17.72,North,357,0.0,0.0,41,0.00,,---,0.00,VWS V13.01,2013-03-28 10:59:00,
2013-03-28 07:05:00,34.5,13.3,17.72,NNE,33,0.0,0.0,41,0.00,,---,0.00,VWS V13.01,2013-03-28 11:05:00,
2013-03-28 07:09:00,34.5,13.3,17.72,West,263,0.0,0.0,41,0.00,,---,0.00,VWS V13.01,2013-03-28 11:09:00,
2013-03-28 07:14:00,34.5,13.3,17.72,West,266,0.0,0.0,41,0.00,,---,0.00,VWS V13.01,2013-03-28 11:14:00,
2013-03-28 07:19:00,34.7,13.4,17.72,NE,38,0.0,0.0,41,0.00,,---,0.00,VWS V13.01,2013-03-28 11:19:00,
2013-03-28 07:24:00,34.7,13.4,17.72,WSW,247,0.0,0.0,41,0.00,,---,0.00,VWS V13.01,2013-03-28 11:24:00,
2013-03-28 07:29:00,34.7,13.4,17.72,West,265,0.0,0.0,41,0.00,,---,0.00,VWS V13.01,2013-03-28 11:29:00,
2013-03-28 07:34:00,34.9,13.6,17.72,North,0,0.0,0.0,41,0.00,,---,0.00,VWS V13.01,2013-03-28 11:34:00,
2013-03-28 07:39:00,34.9,13.6,17.72,West,264,0.0,0.0,41,0.00,,---,0.00,VWS V13.01,2013-03-28 11:39:00,
2013-03-28 07:44:00,34.9,13.6,17.72,NW,318,0.0,0.0,41,0.00,,---,0.00,VWS V13.01,2013-03-28 11:44:00,
2013-03-28 07:49:00,34.9,14.1,17.72,West,280,0.0,0.0,42,0.00,,---,0.00,VWS V13.01,2013-03-28 11:49:00,
2013-03-28 07:54:00,35.1,14.3,17.72,NNW,328,0.0,0.0,42,0.00,,---,0.00,VWS V13.01,2013-03-28 11:54:00,
2013-03-28 07:59:00,35.1,14.3,17.72,West,265,0.0,0.0,42,0.00,,---,0.00,VWS V13.01,2013-03-28 11:59:00,
2013-03-28 08:04:00,35.1,14.3,17.72,SW,226,0.0,0.0,42,0.00,,---,0.00,VWS V13.01,2013-03-28 12:04:00,
2013-03-28 08:09:00,35.2,14.5,17.72,North,357,0.0,0.0,42,0.00,,---,0.00,VWS V13.01,2013-03-28 12:09:00,
2013-03-28 08:14:00,35.4,14.6,17.72,West,262,0.0,0.0,42,0.00,,---,0.00,VWS V13.01,2013-03-28 12:14:00,
2013-03-28 08:19:00,35.4,14.6,17.72,WSW,243,0.0,0.0,42,0.00,,---,0.00,VWS V13.01,2013-03-28 12:19:00,
2013-03-28 08:24:00,35.6,14.2,17.72,NW,319,0.0,0.0,41,0.00,,---,0.00,VWS V13.01,2013-03-28 12:24:00,
2013-03-28 08:29:00,35.6,14.2,17.72,SSE,158,0.0,0.0,41,0.00,,---,0.00,VWS V13.01,2013-03-28 12:29:00,
2013-03-28 08:34:00,35.8,14.9,17.72,NNE,17,0.0,0.0,42,0.00,,---,0.00,VWS V13.01,2013-03-28 12:34:00,
2013-03-28 08:39:00,36.1,15.3,17.72,West,267,0.0,0.0,42,0.00,,---,0.00,VWS V13.01,2013-03-28 12:39:00,
2013-03-28 08:44:00,36.1,15.3,17.72,West,265,0.0,0.0,42,0.00,,---,0.00,VWS V13.01,2013-03-28 12:44:00,
2013-03-28 08:49:00,36.3,15.4,17.72,NE,54,0.0,0.0,42,0.00,,---,0.00,VWS V13.01,2013-03-28 12:49:00,
2013-03-28 08:54:00,36.5,15.6,17.72,West,267,0.0,2.2,42,0.00,,---,0.00,VWS V13.01,2013-03-28 12:54:00,
2013-03-28 08:59:00,36.7,15.8,17.72,NNE,30,0.0,0.0,42,0.00,,---,0.00,VWS V13.01,2013-03-28 12:59:00,
2013-03-28 09:04:00,36.7,15.8,17.72,West,265,3.1,3.1,42,0.00,,---,0.00,VWS V13.01,2013-03-28 13:04:00,
2013-03-28 09:09:00,36.9,15.9,17.72,WNW,293,0.0,2.2,42,0.00,,---,0.00,VWS V13.01,2013-03-28 13:09:00,
2013-03-28 09:14:00,36.9,15.9,17.72,SW,233,2.7,2.7,42,0.00,,---,0.00,VWS V13.01,2013-03-28 13:14:00,
2013-03-28 09:19:00,37.0,16.1,17.72,North,7,0.0,0.0,42,0.00,,---,0.00,VWS V13.01,2013-03-28 13:19:00,
2013-03-28 09:24:00,37.4,15.9,17.72,North,2,0.0,0.0,41,0.00,,---,0.00,VWS V13.01,2013-03-28 13:24:00,
2013-03-28 09:29:00,37.6,16.0,17.72,East,89,0.0,0.0,41,0.00,,---,0.00,VWS V13.01,2013-03-28 13:29:00,
2013-03-28 09:34:00,37.9,16.4,17.72,WSW,250,0.0,0.0,41,0.00,,---,0.00,VWS V13.01,2013-03-28 13:34:00,
2013-03-28 09:39:00,37.9,16.4,17.72,NNW,344,0.0,0.0,41,0.00,,---,0.00,VWS V13.01,2013-03-28 13:39:00,
2013-03-28 09:44:00,38.3,16.7,17.72,North,6,0.0,0.0,41,0.00,,---,0.00,VWS V13.01,2013-03-28 13:44:00,
2013-03-28 09:49:00,38.5,16.8,17.72,North,357,0.0,0.0,41,0.00,,---,0.00,VWS V13.01,2013-03-28 13:49:00,
2013-03-28 09:54:00,38.7,17.0,17.72,NW,323,0.0,0.0,41,0.00,,---,0.00,VWS V13.01,2013-03-28 13:54:00,
2013-03-28 09:59:00,38.8,17.2,17.72,NE,45,0.0,0.0,41,0.00,,---,0.00,VWS V13.01,2013-03-28 13:59:00,
2013-03-28 10:04:00,39.0,17.3,17.72,ENE,63,0.0,2.7,41,0.00,,---,0.00,VWS V13.01,2013-03-28 14:04:00,
2013-03-28 10:09:00,39.2,16.9,17.72,WNW,282,0.0,0.0,40,0.00,,---,0.00,VWS V13.01,2013-03-28 14:09:00,
2013-03-28 10:14:00,39.6,17.2,17.72,WSW,252,0.0,0.0,40,0.00,,---,0.00,VWS V13.01,2013-03-28 14:14:00,
2013-03-28 10:19:00,39.9,17.6,17.72,NW,313,0.0,0.0,40,0.00,,---,0.00,VWS V13.01,2013-03-28 14:19:00,
2013-03-28 10:24:00,40.3,17.3,17.72,WSW,248,0.0,3.1,39,0.00,,---,0.00,VWS V13.01,2013-03-28 14:24:00,
2013-03-28 10:29:00,40.1,17.1,17.72,WNW,295,0.0,2.7,39,0.00,,---,0.00,VWS V13.01,2013-03-28 14:29:00,
2013-03-28 10:34:00,40.3,17.3,17.72,NE,42,0.0,0.0,39,0.00,,---,0.00,VWS V13.01,2013-03-28 14:34:00,
2013-03-28 10:39:00,40.5,17.5,17.72,SW,224,0.0,0.0,39,0.00,,---,0.00,VWS V13.01,2013-03-28 14:39:00,
2013-03-28 10:44:00,40.5,17.5,17.72,WNW,288,0.0,0.0,39,0.00,,---,0.00,VWS V13.01,2013-03-28 14:44:00,
2013-03-28 10:49:00,40.8,17.2,17.72,WNW,302,0.0,0.0,38,0.00,,---,0.00,VWS V13.01,2013-03-28 14:49:00,
2013-03-28 10:54:00,41.2,16.9,17.72,North,7,0.0,0.0,37,0.00,,---,0.00,VWS V13.01,2013-03-28 14:54:00,
2013-03-28 10:59:00,41.5,17.2,17.72,WSW,246,0.0,0.0,37,0.00,,---,0.00,VWS V13.01,2013-03-28 14:59:00,
2013-03-28 11:04:00,41.7,16.8,17.72,NE,36,0.0,0.0,36,0.00,,---,0.00,VWS V13.01,2013-03-28 15:04:00,
2013-03-28 11:09:00,41.7,16.1,17.72,NNE,17,0.0,0.0,35,0.00,,---,0.00,VWS V13.01,2013-03-28 15:09:00,
2013-03-28 11:14:00,41.9,16.3,17.72,West,264,0.0,0.0,35,0.00,,---,0.00,VWS V13.01,2013-03-28 15:14:00,
2013-03-28 11:19:00,42.1,16.4,17.72,NNE,30,0.0,0.0,35,0.00,,---,0.00,VWS V13.01,2013-03-28 15:19:00,
2013-03-28 11:24:00,42.3,16.6,17.72,NNW,331,0.0,0.0,35,0.00,,---,0.00,VWS V13.01,2013-03-28 15:24:00,
2013-03-28 11:29:00,42.6,16.2,17.72,NE,49,0.0,0.0,34,0.00,,---,0.00,VWS V13.01,2013-03-28 15:29:00,
2013-03-28 11:34:00,42.8,15.7,17.72,NNE,25,0.0,0.0,33,0.00,,---,0.00,VWS V13.01,2013-03-28 15:34:00,
2013-03-28 11:39:00,43.2,15.3,17.72,NNE,15,0.0,0.0,32,0.00,,---,0.00,VWS V13.01,2013-03-28 15:39:00,
2013-03-28 11:44:00,43.3,14.8,17.72,North,11,0.0,3.6,31,0.00,,---,0.00,VWS V13.01,2013-03-28 15:44:00,
2013-03-28 11:49:00,43.3,14.0,17.72,NE,36,0.0,0.0,30,0.00,,---,0.00,VWS V13.01,2013-03-28 15:49:00,
2013-03-28 11:54:00,43.5,13.4,17.72,ENE,57,0.0,0.0,29,0.00,,---,0.00,VWS V13.01,2013-03-28 15:54:00,
2013-03-28 11:59:00,44.2,14.0,17.72,NNW,336,0.0,0.0,29,0.00,,---,0.00,VWS V13.01,2013-03-28 15:59:00,
2013-03-28 12:04:00,44.8,13.7,17.72,North,350,0.0,2.2,28,0.00,,---,0.00,VWS V13.01,2013-03-28 16:04:00,
2013-03-28 12:09:00,45.1,14.0,17.72,North,353,0.0,0.0,28,0.00,,---,0.00,VWS V13.01,2013-03-28 16:09:00,
2013-03-28 12:14:00,45.5,14.3,17.72,NNE,12,0.0,4.0,28,0.00,,---,0.00,VWS V13.01,2013-03-28 16:14:00,
2013-03-28 12:19:00,46.2,14.9,17.72,NE,37,0.0,0.0,28,0.00,,---,0.00,VWS V13.01,2013-03-28 16:19:00,
2013-03-28 12:24:00,46.4,14.2,17.72,NNE,17,0.0,0.0,27,0.00,,---,0.00,VWS V13.01,2013-03-28 16:24:00,
2013-03-28 12:29:00,46.4,11.6,17.72,ENE,63,0.0,0.0,24,0.00,,---,0.00,VWS V13.01,2013-03-28 16:29:00,
2013-03-28 12:34:00,45.3,11.6,17.72,North,353,0.0,0.0,25,0.00,,---,0.00,VWS V13.01,2013-03-28 16:34:00,
2013-03-28 12:39:00,44.4,10.8,17.72,North,357,0.0,0.0,25,0.00,,---,0.00,VWS V13.01,2013-03-28 16:39:00,
2013-03-28 12:44:00,43.9,10.4,17.72,East,85,0.0,0.0,25,0.00,,---,0.00,VWS V13.01,2013-03-28 16:44:00,
2013-03-28 12:49:00,43.2,7.9,17.72,NE,36,0.0,0.0,23,0.00,,---,0.00,VWS V13.01,2013-03-28 16:49:00,
2013-03-28 12:54:00,43.2,9.7,17.72,NNE,18,0.0,0.0,25,0.00,,---,0.00,VWS V13.01,2013-03-28 16:54:00,
2013-03-28 12:59:00,43.2,9.7,17.72,NNE,13,0.0,0.0,25,0.00,,---,0.00,VWS V13.01,2013-03-28 16:59:00,
2013-03-28 13:04:00,43.3,9.9,17.72,ENE,69,0.0,0.0,25,0.00,,---,0.00,VWS V13.01,2013-03-28 17:04:00,
2013-03-28 13:09:00,43.5,10.0,17.72,NNE,32,0.0,0.0,25,0.00,,---,0.00,VWS V13.01,2013-03-28 17:09:00,
2013-03-28 13:14:00,43.7,10.2,17.72,ENE,71,0.0,0.0,25,0.00,,---,0.00,VWS V13.01,2013-03-28 17:14:00,
2013-03-28 13:19:00,44.2,10.7,17.72,NE,36,0.0,0.0,25,0.00,,---,0.00,VWS V13.01,2013-03-28 17:19:00,
2013-03-28 13:24:00,44.4,10.8,17.72,North,9,0.0,0.0,25,0.00,,---,0.00,VWS V13.01,2013-03-28 17:24:00,
2013-03-28 13:29:00,45.0,11.3,17.72,NNW,327,0.0,0.0,25,0.00,,---,0.00,VWS V13.01,2013-03-28 17:29:00,
2013-03-28 13:34:00,45.5,8.9,17.72,East,99,0.0,0.0,22,0.00,,---,0.00,VWS V13.01,2013-03-28 17:34:00,
2013-03-28 13:39:00,45.7,6.9,17.72,ENE,73,0.0,0.0,20,0.00,,---,0.00,VWS V13.01,2013-03-28 17:39:00,
2013-03-28 13:44:00,45.7,3.4,17.72,ENE,66,0.0,0.0,17,0.00,,---,0.00,VWS V13.01,2013-03-28 17:44:00,
2013-03-28 13:49:00,46.0,7.2,17.72,North,11,3.6,3.6,20,0.00,,---,0.00,VWS V13.01,2013-03-28 17:49:00,
2013-03-28 13:54:00,45.9,3.5,17.72,ENE,63,3.1,3.1,17,0.00,,---,0.00,VWS V13.01,2013-03-28 17:54:00,
2013-03-28 13:59:00,45.5,3.2,17.72,NNE,19,0.0,0.0,17,0.00,,---,0.00,VWS V13.01,2013-03-28 17:59:00,
2013-03-28 14:04:00,45.5,3.2,17.72,ENE,59,0.0,0.0,17,0.00,,---,0.00,VWS V13.01,2013-03-28 18:04:00,
2013-03-28 14:09:00,45.3,3.1,17.72,NNE,19,3.1,4.9,17,0.00,,---,0.00,VWS V13.01,2013-03-28 18:09:00,
2013-03-28 14:14:00,45.3,3.1,17.72,NNW,342,0.0,0.0,17,0.00,,---,0.00,VWS V13.01,2013-03-28 18:14:00,
2013-03-28 14:19:00,45.3,3.1,17.72,NNE,20,0.0,0.0,17,0.00,,---,0.00,VWS V13.01,2013-03-28 18:19:00,
2013-03-28 14:24:00,45.5,3.2,17.72,North,10,4.0,4.0,17,0.00,,---,0.00,VWS V13.01,2013-03-28 18:24:00,
2013-03-28 14:29:00,45.3,3.1,17.72,West,274,0.0,0.0,17,0.00,,---,0.00,VWS V13.01,2013-03-28 18:29:00,
2013-03-28 14:34:00,45.3,3.1,17.72,NNE,33,0.0,0.0,17,0.00,,---,0.00,VWS V13.01,2013-03-28 18:34:00,
2013-03-28 14:39:00,45.3,3.1,17.72,NNE,13,0.0,0.0,17,0.00,,---,0.00,VWS V13.01,2013-03-28 18:39:00,
2013-03-28 14:44:00,45.5,3.2,17.72,WSW,250,0.0,0.0,17,0.00,,---,0.00,VWS V13.01,2013-03-28 18:44:00,
2013-03-28 14:49:00,45.9,3.5,17.72,South,181,0.0,3.1,17,0.00,,---,0.00,VWS V13.01,2013-03-28 18:49:00,
2013-03-28 14:54:00,45.9,3.5,17.72,North,6,0.0,0.0,17,0.00,,---,0.00,VWS V13.01,2013-03-28 18:54:00,
2013-03-28 14:59:00,46.0,3.7,17.72,East,86,2.7,2.7,17,0.00,,---,0.00,VWS V13.01,2013-03-28 18:59:00,
2013-03-28 15:04:00,46.0,3.7,17.72,North,357,0.0,0.0,17,0.00,,---,0.00,VWS V13.01,2013-03-28 19:04:00,
2013-03-28 15:09:00,46.2,3.8,17.72,NE,39,2.7,2.7,17,0.00,,---,0.00,VWS V13.01,2013-03-28 19:09:00,
2013-03-28 15:14:00,46.4,4.0,17.72,NE,39,3.1,3.1,17,0.00,,---,0.00,VWS V13.01,2013-03-28 19:14:00,
2013-03-28 15:19:00,46.6,4.1,17.72,NE,48,0.0,0.0,17,0.00,,---,0.00,VWS V13.01,2013-03-28 19:19:00,
2013-03-28 15:24:00,46.8,0.1,17.72,ENE,62,0.0,0.0,14,0.00,,---,0.00,VWS V13.01,2013-03-28 19:24:00,
2013-03-28 15:29:00,46.9,0.2,17.72,East,85,2.2,2.2,14,0.00,,---,0.00,VWS V13.01,2013-03-28 19:29:00,
2013-03-28 15:34:00,47.5,0.7,17.72,SW,225,4.0,4.0,14,0.00,,---,0.00,VWS V13.01,2013-03-28 19:34:00,
2013-03-28 15:39:00,47.5,0.7,17.72,North,6,4.9,4.9,14,0.00,,---,0.00,VWS V13.01,2013-03-28 19:39:00,
2013-03-28 15:44:00,47.5,0.7,17.72,NNE,22,4.0,4.9,14,0.00,,---,0.00,VWS V13.01,2013-03-28 19:44:00,
2013-03-28 15:49:00,47.7,0.8,17.72,NE,52,2.2,2.2,14,0.00,,---,0.00,VWS V13.01,2013-03-28 19:49:00,
2013-03-28 15:54:00,47.5,0.7,17.72,North,357,3.1,8.3,14,0.00,,---,0.00,VWS V13.01,2013-03-28 19:54:00,
2013-03-28 15:59:00,47.3,0.5,17.72,WNW,290,3.6,3.6,14,0.00,,---,0.00,VWS V13.01,2013-03-28 19:59:00,
2013-03-28 16:04:00,47.3,0.5,17.72,West,276,7.6,7.6,14,0.00,,---,0.00,VWS V13.01,2013-03-28 20:04:00,
2013-03-28 16:09:00,47.3,0.5,17.72,West,278,2.7,2.7,14,0.00,,---,0.00,VWS V13.01,2013-03-28 20:09:00,
2013-03-28 16:14:00,47.5,0.7,17.72,NNE,21,0.0,7.2,14,0.00,,---,0.00,VWS V13.01,2013-03-28 20:14:00,
2013-03-28 16:19:00,47.5,0.7,17.72,West,265,2.7,2.7,14,0.00,,---,0.00,VWS V13.01,2013-03-28 20:19:00,
2013-03-28 16:24:00,47.3,0.5,17.72,NNE,12,3.1,3.1,14,0.00,,---,0.00,VWS V13.01,2013-03-28 20:24:00,
2013-03-28 16:29:00,46.9,0.2,17.72,ENE,62,3.6,3.6,14,0.00,,---,0.00,VWS V13.01,2013-03-28 20:29:00,
2013-03-28 16:34:00,46.8,0.1,17.72,WNW,291,4.0,4.0,14,0.00,,---,0.00,VWS V13.01,2013-03-28 20:34:00,
2013-03-28 16:39:00,46.6,-0.1,17.72,North,8,2.2,2.2,14,0.00,,---,0.00,VWS V13.01,2013-03-28 20:39:00,
2013-03-28 16:44:00,46.4,-0.2,17.72,NNE,26,4.0,4.0,14,0.00,,---,0.00,VWS V13.01,2013-03-28 20:44:00,
2013-03-28 16:49:00,46.2,1.1,17.72,North,353,0.0,3.1,15,0.00,,---,0.00,VWS V13.01,2013-03-28 20:49:00,
2013-03-28 16:54:00,45.9,0.8,17.72,NNE,25,3.1,3.1,15,0.00,,---,0.00,VWS V13.01,2013-03-28 20:54:00,
2013-03-28 16:59:00,45.9,0.8,17.72,NNE,30,0.0,0.0,15,0.00,,---,0.00,VWS V13.01,2013-03-28 20:59:00,
2013-03-28 17:04:00,45.7,0.7,17.72,NNW,328,3.1,3.1,15,0.00,,---,0.00,VWS V13.01,2013-03-28 21:04:00,
2013-03-28 17:09:00,45.7,0.7,17.72,East,93,3.6,3.6,15,0.00,,---,0.00,VWS V13.01,2013-03-28 21:09:00,
2013-03-28 17:14:00,45.9,0.8,17.72,ESE,102,4.0,4.0,15,0.00,,---,0.00,VWS V13.01,2013-03-28 21:14:00,
2013-03-28 17:19:00,45.7,0.7,17.72,South,190,6.3,6.3,15,0.00,,---,0.00,VWS V13.01,2013-03-28 21:19:00,
2013-03-28 17:24:00,45.5,0.6,17.72,South,171,3.1,3.1,15,0.00,,---,0.00,VWS V13.01,2013-03-28 21:24:00,
2013-03-28 17:29:00,45.3,0.4,17.72,NNE,28,2.7,5.4,15,0.00,,---,0.00,VWS V13.01,2013-03-28 21:29:00,
2013-03-28 17:34:00,45.1,0.3,17.72,WNW,303,3.1,3.1,15,0.00,,---,0.00,VWS V13.01,2013-03-28 21:34:00,
2013-03-28 17:39:00,44.8,0.0,17.72,NNE,15,3.6,3.6,15,0.00,,---,0.00,VWS V13.01,2013-03-28 21:39:00,
2013-03-28 17:44:00,44.8,0.0,17.72,WSW,250,2.2,5.4,15,0.00,,---,0.00,VWS V13.01,2013-03-28 21:44:00,
2013-03-28 17:49:00,44.6,-0.2,17.72,SW,234,5.4,5.4,15,0.00,,---,0.00,VWS V13.01,2013-03-28 21:49:00,
2013-03-28 17:54:00,44.6,-0.2,17.72,West,277,2.7,5.4,15,0.00,,---,0.00,VWS V13.01,2013-03-28 21:54:00,
2013-03-28 17:59:00,44.6,-0.2,17.72,NE,41,4.0,4.0,15,0.00,,---,0.00,VWS V13.01,2013-03-28 21:59:00,
2013-03-28 18:04:00,44.4,-0.3,17.72,North,3,3.1,3.1,15,0.00,,---,0.00,VWS V13.01,2013-03-28 22:04:00,
2013-03-28 18:09:00,44.2,-0.5,17.72,WSW,239,0.0,3.1,15,0.00,,---,0.00,VWS V13.01,2013-03-28 22:09:00,
2013-03-28 18:14:00,44.1,-0.6,17.72,North,3,0.0,0.0,15,0.00,,---,0.00,VWS V13.01,2013-03-28 22:14:00,
2013-03-28 18:19:00,44.1,-0.6,17.72,NNW,340,2.7,2.7,15,0.00,,---,0.00,VWS V13.01,2013-03-28 22:19:00,
2013-03-28 18:24:00,44.1,-0.6,17.72,NNE,18,2.7,2.7,15,0.00,,---,0.00,VWS V13.01,2013-03-28 22:24:00,
2013-03-28 18:29:00,44.1,-0.6,17.72,WNW,290,2.7,2.7,15,0.00,,---,0.00,VWS V13.01,2013-03-28 22:29:00,
2013-03-28 18:34:00,43.9,-0.8,17.72,NNE,32,4.9,5.8,15,0.00,,---,0.00,VWS V13.01,2013-03-28 22:34:00,
2013-03-28 18:39:00,43.7,-0.9,17.72,NW,315,3.1,3.1,15,0.00,,---,0.00,VWS V13.01,2013-03-28 22:39:00,
2013-03-28 18:44:00,43.7,-0.9,17.72,North,357,0.0,0.0,15,0.00,,---,0.00,VWS V13.01,2013-03-28 22:44:00,
2013-03-28 18:49:00,43.5,-1.1,17.72,NNE,33,2.2,2.7,15,0.00,,---,0.00,VWS V13.01,2013-03-28 22:49:00,
2013-03-28 18:54:00,43.5,-1.1,17.72,North,8,3.6,3.6,15,0.00,,---,0.00,VWS V13.01,2013-03-28 22:54:00,
2013-03-28 18:59:00,43.3,-1.2,17.72,WSW,238,2.2,3.1,15,0.00,,---,0.00,VWS V13.01,2013-03-28 22:59:00,
2013-03-28 19:04:00,43.3,-1.2,17.72,NW,317,0.0,0.0,15,0.00,,---,0.00,VWS V13.01,2013-03-28 23:04:00,
2013-03-28 19:09:00,43.2,-1.4,17.72,West,271,4.9,4.9,15,0.00,,---,0.00,VWS V13.01,2013-03-28 23:09:00,
2013-03-28 19:14:00,43.2,-1.4,17.72,West,270,2.7,2.7,15,0.00,,---,0.00,VWS V13.01,2013-03-28 23:14:00,
2013-03-28 19:19:00,43.0,-1.5,17.72,NNE,21,0.0,0.0,15,0.00,,---,0.00,VWS V13.01,2013-03-28 23:19:00,
2013-03-28 19:24:00,43.0,-1.5,17.72,West,261,2.7,2.7,15,0.00,,---,0.00,VWS V13.01,2013-03-28 23:24:00,
2013-03-28 19:29:00,43.0,-1.5,17.72,South,174,2.7,2.7,15,0.00,,---,0.00,VWS V13.01,2013-03-28 23:29:00,
2013-03-28 19:34:00,42.8,-1.6,17.72,NNE,23,0.0,0.0,15,0.00,,---,0.00,VWS V13.01,2013-03-28 23:34:00,
2013-03-28 19:39:00,42.6,-0.4,17.72,West,267,0.0,0.0,16,0.00,,---,0.00,VWS V13.01,2013-03-28 23:39:00,
2013-03-28 19:44:00,42.4,-0.6,17.72,NNW,335,0.0,0.0,16,0.00,,---,0.00,VWS V13.01,2013-03-28 23:44:00,
2013-03-28 19:49:00,42.3,-0.7,17.72,NW,319,0.0,0.0,16,0.00,,---,0.00,VWS V13.01,2013-03-28 23:49:00,
2013-03-28 19:54:00,42.1,-0.9,17.72,WSW,249,2.7,2.7,16,0.00,,---,0.00,VWS V13.01,2013-03-28 23:54:00,
2013-03-28 19:59:00,42.1,-0.9,17.72,ENE,78,0.0,0.0,16,0.00,,---,0.00,VWS V13.01,2013-03-28 23:59:00,
2013-03-28 20:04:00,41.7,-1.2,17.72,ENE,72,2.7,2.7,16,0.00,,---,0.00,VWS V13.01,2013-03-29 00:04:00,
2013-03-28 20:09:00,41.7,-1.2,17.72,West,272,2.2,2.7,16,0.00,,---,0.00,VWS V13.01,2013-03-29 00:09:00,
2013-03-28 20:14:00,41.5,-1.3,17.72,North,11,0.0,0.0,16,0.00,,---,0.00,VWS V13.01,2013-03-29 00:14:00,
2013-03-28 20:19:00,41.5,-1.3,17.72,SW,220,0.0,0.0,16,0.00,,---,0.00,VWS V13.01,2013-03-29 00:19:00,
2013-03-28 20:24:00,41.5,-1.3,17.72,WSW,244,0.0,0.0,16,0.00,,---,0.00,VWS V13.01,2013-03-29 00:24:00,
2013-03-28 20:29:00,41.4,-1.5,17.72,SSW,200,3.6,3.6,16,0.00,,---,0.00,VWS V13.01,2013-03-29 00:29:00,
2013-03-28 20:34:00,41.2,-1.6,17.72,West,276,0.0,0.0,16,0.00,,---,0.00,VWS V13.01,2013-03-29 00:34:00,
2013-03-28 20:39:00,41.2,-1.6,17.72,NNW,341,0.0,2.2,16,0.00,,---,0.00,VWS V13.01,2013-03-29 00:39:00,
2013-03-28 20:44:00,41.2,-1.6,17.72,South,169,0.0,0.0,16,0.00,,---,0.00,VWS V13.01,2013-03-29 00:44:00,
2013-03-28 20:49:00,41.0,-1.7,17.72,NW,304,2.2,4.0,16,0.00,,---,0.00,VWS V13.01,2013-03-29 00:49:00,
2013-03-28 20:54:00,41.0,-1.7,17.72,West,277,2.2,4.9,16,0.00,,---,0.00,VWS V13.01,2013-03-29 00:54:00,
2013-03-28 20:59:00,40.6,-2.0,17.72,NNE,28,0.0,2.7,16,0.00,,---,0.00,VWS V13.01,2013-03-29 00:59:00,
2013-03-28 21:04:00,40.6,-2.0,17.72,SW,234,0.0,0.0,16,0.00,,---,0.00,VWS V13.01,2013-03-29 01:04:00,
2013-03-28 21:09:00,40.6,-2.0,17.72,West,259,0.0,2.2,16,0.00,,---,0.00,VWS V13.01,2013-03-29 01:09:00,
2013-03-28 21:14:00,40.5,-2.2,17.72,WSW,242,3.1,3.1,16,0.00,,---,0.00,VWS V13.01,2013-03-29 01:14:00,
2013-03-28 21:19:00,40.3,-2.3,17.72,NNW,334,0.0,2.2,16,0.00,,---,0.00,VWS V13.01,2013-03-29 01:19:00,
2013-03-28 21:24:00,40.3,-2.3,17.72,SW,231,0.0,0.0,16,0.00,,---,0.00,VWS V13.01,2013-03-29 01:24:00,
2013-03-28 21:29:00,40.1,-2.5,17.72,West,272,0.0,0.0,16,0.00,,---,0.00,VWS V13.01,2013-03-29 01:29:00,
2013-03-28 21:34:00,40.1,-2.5,17.72,West,270,0.0,0.0,16,0.00,,---,0.00,VWS V13.01,2013-03-29 01:34:00,
2013-03-28 21:39:00,39.9,-2.6,17.72,WSW,239,0.0,0.0,16,0.00,,---,0.00,VWS V13.01,2013-03-29 01:39:00,
2013-03-28 21:44:00,39.9,-0.1,17.72,NW,307,2.7,2.7,18,0.00,,---,0.00,VWS V13.01,2013-03-29 01:44:00,
2013-03-28 21:49:00,39.9,-0.1,17.72,North,2,0.0,2.2,18,0.00,,---,0.00,VWS V13.01,2013-03-29 01:49:00,
2013-03-28 21:54:00,39.9,-0.1,17.72,NNW,340,2.7,3.6,18,0.00,,---,0.00,VWS V13.01,2013-03-29 01:54:00,
2013-03-28 21:59:00,39.7,-0.3,17.72,West,271,3.1,3.1,18,0.00,,---,0.00,VWS V13.01,2013-03-29 01:59:00,
2013-03-28 22:04:00,39.7,-0.3,17.72,NNE,16,3.6,3.6,18,0.00,,---,0.00,VWS V13.01,2013-03-29 02:04:00,
2013-03-28 22:09:00,39.7,-0.3,17.72,SW,214,4.9,4.9,18,0.00,,---,0.00,VWS V13.01,2013-03-29 02:09:00,
2013-03-28 22:14:00,39.7,-0.3,17.72,WNW,286,4.0,4.0,18,0.00,,---,0.00,VWS V13.01,2013-03-29 02:14:00,
2013-03-28 22:19:00,39.7,-0.3,17.72,WSW,254,0.0,0.0,18,0.00,,---,0.00,VWS V13.01,2013-03-29 02:19:00,
2013-03-28 22:24:00,39.7,-0.3,17.72,West,270,0.0,0.0,18,0.00,,---,0.00,VWS V13.01,2013-03-29 02:24:00,
2013-03-28 22:29:00,39.7,-0.3,17.72,NNE,12,0.0,0.0,18,0.00,,---,0.00,VWS V13.01,2013-03-29 02:29:00,
2013-03-28 22:34:00,39.7,-0.3,17.72,WNW,291,0.0,2.2,18,0.00,,---,0.00,VWS V13.01,2013-03-29 02:34:00,
2013-03-28 22:39:00,39.6,-0.4,17.72,West,274,3.1,4.0,18,0.00,,---,0.00,VWS V13.01,2013-03-29 02:39:00,
2013-03-28 22:44:00,39.6,-0.4,17.72,SSW,212,0.0,2.2,18,0.00,,---,0.00,VWS V13.01,2013-03-29 02:44:00,
2013-03-28 22:49:00,39.4,-0.6,17.72,NW,318,3.6,4.0,18,0.00,,---,0.00,VWS V13.01,2013-03-29 02:49:00,
2013-03-28 22:54:00,39.4,-0.6,17.72,NE,42,0.0,0.0,18,0.00,,---,0.00,VWS V13.01,2013-03-29 02:54:00,
2013-03-28 22:59:00,39.4,-0.6,17.72,WSW,252,0.0,0.0,18,0.00,,---,0.00,VWS V13.01,2013-03-29 02:59:00,
2013-03-28 23:04:00,39.4,-0.6,17.72,South,177,0.0,2.2,18,0.00,,---,0.00,VWS V13.01,2013-03-29 03:04:00,
2013-03-28 23:09:00,39.2,-0.7,17.72,West,275,0.0,0.0,18,0.00,,---,0.00,VWS V13.01,2013-03-29 03:09:00,
2013-03-28 23:14:00,39.2,-0.7,17.72,West,267,0.0,0.0,18,0.00,,---,0.00,VWS V13.01,2013-03-29 03:14:00,
2013-03-28 23:19:00,39.2,-0.7,17.72,SW,225,0.0,0.0,18,0.00,,---,0.00,VWS V13.01,2013-03-29 03:19:00,
2013-03-28 23:24:00,39.0,0.3,17.72,SW,227,0.0,0.0,19,0.00,,---,0.00,VWS V13.01,2013-03-29 03:24:00,
2013-03-28 23:29:00,39.0,0.3,17.72,NW,322,2.2,2.2,19,0.00,,---,0.00,VWS V13.01,2013-03-29 03:29:00,
2013-03-28 23:34:00,38.8,0.1,17.72,WSW,251,0.0,0.0,19,0.00,,---,0.00,VWS V13.01,2013-03-29 03:34:00,
2013-03-28 23:39:00,38.8,2.3,17.72,North,357,0.0,0.0,21,0.00,,---,0.00,VWS V13.01,2013-03-29 03:39:00,
2013-03-28 23:44:00,38.8,2.3,17.72,NNE,24,2.7,3.6,21,0.00,,---,0.00,VWS V13.01,2013-03-29 03:44:00,
2013-03-28 23:49:00,38.8,2.3,17.72,West,277,0.0,0.0,21,0.00,,---,0.00,VWS V13.01,2013-03-29 03:49:00,
2013-03-28 23:54:00,38.8,2.3,17.72,ENE,63,0.0,0.0,21,0.00,,---,0.00,VWS V13.01,2013-03-29 03:54:00,
2013-03-28 23:59:00,38.8,2.3,17.72,West,273,2.2,2.7,21,0.00,,---,0.00,VWS V13.01,2013-03-29 03:59:00,